Location: Dammartin
(48.9032°N, 1.6195°E)
Time: 09:57:05
(UTC+00:00)

CZ-4 R/B - Pass Details

Date: 03 February 2023
Orbit: 526 x 586 km, 97.7° (Epoch: 28 March)

Event Time Altitude Azimuth Distance (km) Brightness Sun altitude
Rises 18:03:10 0° 137° (SE) 2,799 4.6 -11.6°
Reaches altitude 10° 18:05:31 10° 126° (SE) 1,897 3.7 -12.0°
Maximum altitude 18:09:05 29° 67° (ENE) 1,077 2.2 -12.6°
Drops below altitude 10° 18:12:36 10° 7° (N) 1,882 3.9 -13.2°
Sets 18:14:56 0° 356° (N) 2,772 4.8 -13.5°
